This demonstration page uses our WeatherBlox Daily Observations layout. Learn more.

Left ArrowRight Arrow

39.92423, -83.80882

Hourly Observations for March 17, 2017

Temp ( °F °C ) Dew Point ( °F °C ) Humidity (%) Winds ( mph kmh ) Pressure ( in mb ) Visibility ( mi km ) Precip ( " mm )
12:56 am 00:56 Clear 22 -5.6 16 -8.9 78 78 Calm 30.32 1027 10 16.0934 0 0
1:56 am 01:56 Clear 21 -6.1 16 -8.9 81 81 Calm 30.32 1027 10 16.0934 0 0
2:56 am 02:56 Clear 19 -7.2 14 -10 81 81 SSE 3 6 30.32 1027 10 16.0934 0 0
3:56 am 03:56 Clear 20 -6.7 16 -8.9 85 85 SE 5 7 30.31 1026 10 16.0934 0 0
4:56 am 04:56 Clear 21 -6.1 16 -8.9 81 81 SE 5 7 30.29 1026 10 16.0934 0 0
5:56 am 05:56 Clear 29 -1.7 18 -7.8 63 63 SSE 7 11 30.29 1026 10 16.0934 0 0
6:56 am 06:56 Cloudy 30 -1.1 19 -7.2 64 64 SSE 8 13 30.28 1025 10 16.0934 0 0
7:56 am 07:56 Cloudy 32 0 19 -7.2 59 59 SSE 9 15 30.28 1025 10 16.0934 0 0
8:56 am 08:56 Cloudy 34 1.1 18 -7.8 52 52 S 8 13 30.28 1025 10 16.0934 0 0
9:22 am 09:22 Cloudy with Light Rain 34 1 21 -6 60 60 SSW 14 22 30.3 1026 1.75 2.816345 0 0.0254
9:24 am 09:24 Cloudy with Light Snow 32 0 23 -5 69 69 SSW 15 24 30.3 1026 0.75 1.207005 0 0.0254
9:26 am 09:26 Cloudy with Heavy Snow 30 -1 27 -3 86 86 SSW 14 22 30.3 1026 0.25 0.402335 0 0.0254
9:43 am 09:43 Cloudy with Light Snow 30 -1 28 -2 93 93 S 7 11 30.3 1026 0.75 1.207005 0 0.0254
9:46 am 09:46 Cloudy with Light Snow 30 -1 28 -2 93 93 SSE 12 19 30.3 1026 1.25 2.011675 0 0.0254
9:51 am 09:51 Cloudy with Light Snow 30 -1 28 -2 93 93 SSE 10 17 30.3 1026 2 3.21868 0 0.0254
9:56 am 09:56 Cloudy with Light Snow 30 -1.1 28 -2.2 92 92 SSE 10 17 30.27 1025 3 4.82802 0 0.0254
10:45 am 10:45 Cloudy with Light Freezing Rain 30 -1 28 -2 93 93 SSE 10 17 30.27 1025 10 16.0934 0.01 0.254
10:56 am 10:56 Cloudy with Light Wintry Mix 31 -0.6 28 -2.2 89 89 SSE 14 22 30.26 1025 10 16.0934 0.02 0.508
11:56 am 11:56 Cloudy with Light Wintry Mix 32 0 27 -2.8 82 82 SE 13 20 30.22 1024 10 16.0934 0 0.0254
12:56 pm 12:56 Cloudy 33 0.6 27 -2.8 78 78 SE 10 17 30.2 1023 10 16.0934 0.01 0.254
1:46 pm 13:46 Cloudy with Light Wintry Mix 32 0 28 -2 87 87 SE 13 20 30.21 1023 10 16.0934 0 0.0254
1:56 pm 13:56 Cloudy with Light Wintry Mix 32 0 30 -1.1 92 92 SE 10 17 30.18 1022 10 16.0934 0 0.0254
2:07 pm 14:07 Cloudy with Light Freezing Rain 32 0 30 -1 93 93 SE 12 19 30.18 1022 9 14.48406 0 0.0254
2:33 pm 14:33 Cloudy with Light Freezing Rain 32 0 30 -1 93 93 SE 13 20 30.18 1022 5 8.0467 0 0.0254
2:56 pm 14:56 Cloudy with Light Freezing Rain 32 0 31 -0.6 96 96 SE 9 15 30.14 1021 4 6.43736 0 0.0254
3:56 pm 15:56 Cloudy with Mist and Fog 32 0 31 -0.6 96 96 SE 12 19 30.11 1020 3 4.82802 0 0.0254
4:56 pm 16:56 Cloudy with Light Wintry Mix 33 0.6 33 0.6 100 100 SE 10 17 30.09 1019 4 6.43736 0 0.0254
5:56 pm 17:56 Cloudy with Light Wintry Mix 34 1.1 33 0.6 97 97 SE 9 15 30.08 1019 4 6.43736 0 0.0254
6:56 pm 18:56 Cloudy with Light Wintry Mix 33 0.6 33 0.6 100 100 SE 9 15 30.07 1018 6 9.65604 0 0.0254
7:56 pm 19:56 Cloudy with Light Wintry Mix 33 0.6 33 0.6 100 100 SE 5 7 30.08 1019 2.5 4.02335 0 0.0254
8:03 pm 20:03 Cloudy with Light Wintry Mix 34 1 34 1 100 100 SE 6 9 30.12 1020 3 4.82802 0 0.0254
8:19 pm 20:19 Cloudy with Light Wintry Mix 34 1 34 1 100 100 SE 5 7 30.12 1020 2.5 4.02335 0.01 0.254
8:35 pm 20:35 Cloudy with Light Wintry Mix 34 1 34 1 100 100 SE 5 7 30.09 1019 3 4.82802 0.01 0.254
8:51 pm 20:51 Cloudy with Light Wintry Mix 34 1 34 1 100 100 SE 6 9 30.09 1019 3 4.82802 0.01 0.254
8:56 pm 20:56 Cloudy with Light Wintry Mix 34 1.1 33 0.6 97 97 SE 7 11 30.07 1018 3 4.82802 0.01 0.254
9:13 pm 21:13 Cloudy with Mist and Fog 34 1 34 1 100 100 SSE 6 9 30.09 1019 2.5 4.02335 0 0.0254
9:48 pm 21:48 Cloudy with Mist and Fog 34 1 34 1 100 100 SSE 5 7 30.09 1019 1.75 2.816345 0 0.0254
9:56 pm 21:56 Cloudy with Mist and Fog 34 1.1 33 0.6 97 97 SSE 5 7 30.08 1019 1.5 2.41401 0 0.0254
10:24 pm 22:24 Cloudy with Mist and Fog 34 1 34 1 100 100 SSE 5 7 30.09 1019 1 1.60934 0 0
10:43 pm 22:43 Cloudy with Mist and Fog 34 1 34 1 100 100 SSE 5 7 30.09 1019 0.75 1.207005 0 0
10:56 pm 22:56 Cloudy with Mist and Fog 34 1.1 33 0.6 97 97 SSE 3 6 30.07 1018 0.75 1.207005 0 0
11:09 pm 23:09 Cloudy with Fog 34 1 34 1 100 100 S 3 6 30.09 1019 0.5 0.80467 0 0
11:56 pm 23:56 Cloudy with Fog 35 1.7 34 1.1 96 96 SSW 5 7 30.06 1018 0.5 0.80467 0 0

Powered by AerisWeather